This demonstration page uses our WeatherBlox Daily Observations layout. Learn more.

Left ArrowRight Arrow

31.31129, -92.44514

Hourly Observations for August 26, 2022

Temp ( °F °C ) Dew Point ( °F °C ) Humidity (%) Winds ( mph kmh ) Pressure ( in mb ) Visibility ( mi km ) Precip ( " mm )
12:53 am 00:53 Mostly Cloudy 77 25 74 23.3 90 90 SSE 3 6 29.96 1014 9 14 0.00 0.00
1:53 am 01:53 Cloudy 78 25.6 75 23.9 90 90 ESE 6 9 29.97 1015 10 16 0.00 0.00
2:00 am 02:00 Cloudy 78 25.6 75 23.9 90 90 ESE 5 7 29.97 1015 10 16 0.00 0.00
2:29 am 02:29 Cloudy 78 25.6 74 23.3 87 87 E 5 7 29.97 1015 10 16 0.00 0.00
2:53 am 02:53 Cloudy 77 25 74 23.3 90 90 ESE 6 9 29.97 1015 10 16 0.00 0.00
3:53 am 03:53 Cloudy 77 25 74 23.3 90 90 ESE 5 7 29.96 1015 10 16 0.00 0.00
4:53 am 04:53 Cloudy 77 25 73 22.8 88 88 SSE 3 6 29.96 1014 10 16 0.00 0.00
5:29 am 05:29 Cloudy 77 25 74 23.3 90 90 ESE 5 7 29.95 1014 10 16 0.00 0.00
5:41 am 05:41 Cloudy 77 25 73 22.8 88 88 SE 5 7 29.95 1014 10 16 0.00 0.00
5:53 am 05:53 Cloudy 77 25 73 22.8 88 88 ESE 5 7 29.96 1015 10 16 0.00 0.00
6:13 am 06:13 Cloudy 77 25 74 23.3 90 90 SE 3 6 29.95 1014 10 16 0.00 0.00
6:53 am 06:53 Cloudy with Thunderstorms 77 25 73 22.8 88 88 Calm 29.96 1014 10 16 0.00 0.00
7:11 am 07:11 Cloudy 77 25 73 22.8 88 88 E 3 6 29.96 1014 10 16 0.00 0.00
7:30 am 07:30 Cloudy 77 25 74 23.3 90 90 E 5 7 29.96 1014 9 14 0.00 0.00
7:53 am 07:53 Cloudy 77 25 74 23.3 90 90 E 5 7 29.98 1015 9 14 0.00 0.00
8:00 am 08:00 Cloudy 77 25 74 23.3 90 90 E 3 6 29.97 1015 9 14 0.00 0.00
8:07 am 08:07 Cloudy 77 25 74 23.3 90 90 Calm 29.97 1015 9 14 0.00 0.00
8:53 am 08:53 Cloudy 78 25.6 73 22.8 85 85 E 3 6 29.98 1015 10 16 0.00 0.00
9:00 am 09:00 Cloudy 78 25.6 74 23.3 87 87 E 5 7 29.97 1015 10 16 0.00 0.00
9:53 am 09:53 Cloudy 79 26.1 73 22.8 82 82 ESE 5 7 29.98 1015 10 16 0.00 0.00
10:32 am 10:32 Cloudy 81 27.2 73 22.8 77 77 NNE 3 6 29.98 1015 10 16 0.00 0.00
10:53 am 10:53 Cloudy 81 27.2 73 22.8 77 77 ENE 3 6 29.99 1016 10 16 0.00 0.00
11:53 am 11:53 Cloudy 83 28.3 73 22.8 72 72 VRB 3 6 29.98 1015 10 16 0.00 0.00
12:53 pm 12:53 Cloudy 85 29.4 72 22.2 65 65 VRB 3 6 29.97 1015 10 16 0.00 0.00
1:20 pm 13:20 Cloudy 86 30 72 22.2 63 63 Calm 29.97 1015 10 16 0.00 0.00
1:53 pm 13:53 Mostly Sunny 88 31.1 72 22.2 59 59 Calm 29.96 1014 10 16 0.00 0.00
2:53 pm 14:53 Sunny 89 31.7 73 22.8 59 59 Calm 29.93 1014 10 16 0.00 0.00
3:53 pm 15:53 Mostly Sunny 90 32.2 73 22.8 58 58 VRB 3 6 29.91 1013 10 16 0.00 0.00
4:53 pm 16:53 Partly Cloudy 87 30.6 75 23.9 68 68 SE 9 15 29.92 1013 10 16 0.00 0.00
5:53 pm 17:53 Partly Cloudy 86 30 76 24.4 72 72 NE 9 15 29.91 1013 10 16 0.00 0.00
6:53 pm 18:53 Partly Cloudy 85 29.4 75 23.9 72 72 SSE 8 13 29.91 1013 10 16 0.00 0.00
7:53 pm 19:53 Clear 83 28.3 75 23.9 77 77 SE 7 11 29.93 1013 10 16 0.00 0.00
8:53 pm 20:53 Mostly Clear 82 27.8 75 23.9 79 79 ESE 5 7 29.93 1014 10 16 0.00 0.00
9:53 pm 21:53 Clear 80 26.7 75 23.9 85 85 Calm 29.93 1014 10 16 0.00 0.00
10:53 pm 22:53 Mostly Clear 79 26.1 75 23.9 88 88 Calm 29.96 1015 10 16 0.00 0.00
11:39 pm 23:39 Mostly Cloudy 80 26.7 76 24.4 87 87 ESE 7 11 29.95 1014 10 16 0.00 0.00
11:53 pm 23:53 Cloudy 79 26.1 76 24.4 90 90 SE 5 7 29.97 1015 10 16 0.00 0.00

Powered by AerisWeather